Location: Newark
(40.3500°N, 15.2333°E)
Time: 17:20:44
(UTC+00:00)

NOAA 19 - Pass Details

Date: 21 February 2020
Orbit: 842 x 860 km, 99.2° (Epoch: 04 April)

Event Time Altitude Azimuth Distance (km) Brightness Sun altitude
Rises 16:59:34 0° 198° (SSW) 3,385 8.7 -4.3°
Reaches altitude 10° 17:02:20 10° 211° (SSW) 2,454 8.3 -4.9°
Maximum altitude 17:06:43 25° 265° (W) 1,652 8.0 -5.7°
Drops below altitude 10° 17:11:07 10° 319° (NW) 2,466 8.1 -6.5°
Sets 17:13:56 0° 333° (NNW) 3,407 8.6 -7.1°
